Wind_Speed
7 9 9 8 9 10 10 11 12 14 15 18 20 22 23 25 26 27 24 20 17 17 16 15 15 12 11 7 11 6 4 7 5 5 8 7 12 7 2 8 8 4 6 11 22 24 22
7 10 13 12 13 12 13 13 13 14 15 17 19 23 24 25 28 28 27 21 18 16 15 14 13 10 8 6 3 2 4 8 7 6 4 9 8 14 5 7 0 6 16 19 18 17 12
13 15 15 16 16 19 16 15 15 15 16 17 20 22 25 24 26 29 28 21 17 14 13 12 10 9 10 14 4 7 6 8 6 4 6 9 12 11 9 6 7 15 5 5 7 9 5
13 15 16 17 17 19 17 16 17 18 17 18 21 22 25 26 26 29 26 19 15 12 9 7 7 7 7 1 8 8 8 10 10 6 5 9 9 10 3 7 1 3 5 3 4 9 12
12 14 16 17 19 19 20 20 19 18 18 19 21 24 25 26 27 30 23 18 11 7 5 4 4 6 8 5 11 11 9 9 7 7 7 9 9 5 5 2 4 2 4 4 3 10 7
9 11 14 16 19 20 22 22 20 20 20 21 23 26 28 25 25 28 18 11 4 5 5 7 7 7 3 4 7 14 13 13 14 9 11 3 2 1 3 3 5 6 4 3 6 7 5
9 10 11 13 15 17 18 20 21 21 22 23 25 29 27 22 21 18 17 6 5 1 7 8 4 8 17 4 3 7 11 18 11 4 3 3 2 6 8 7 4 4 4 4 4 5 6
10 11 11 12 13 16 18 19 20 21 22 23 28 25 21 19 18 9 10 6 10 10 13 16 17 23 22 12 9 8 5 7 3 4 1 3 6 11 6 9 9 8 8 5 2 1 5
10 11 12 12 13 14 16 19 20 20 19 22 20 19 17 16 16 6 5 5 5 10 5 13 10 12 15 8 12 9 8 6 4 3 5 6 11 4 7 10 10 3 5 5 4 1 4
10 12 12 13 14 14 15 16 18 19 19 19 18 16 13 14 6 9 7 6 9 6 3 6 4 4 12 12 3 9 11 9 3 9 6 7 20 13 11 3 1 3 2 4 8 4 3
10 11 13 13 14 16 17 17 17 17 18 18 17 14 12 13 13 12 9 10 7 1 4 4 4 3 14 8 4 6 10 7 5 7 2 10 3 3 1 2 2 4 3 5 4 3 2
10 12 13 14 15 16 17 19 19 17 18 16 15 15 13 12 13 10 9 7 3 5 4 2 7 6 4 6 3 8 4 6 4 4 3 7 2 4 5 3 4 2 3 7 4 3 1
9 11 13 14 15 17 18 19 20 18 16 16 15 14 13 12 10 13 11 5 4 4 2 5 5 5 7 5 3 6 4 2 1 3 3 6 4 5 5 4 3 4 5 3 3 3 5
9 10 12 14 15 17 19 21 22 18 16 15 15 15 12 12 10 10 5 2 3 4 5 6 6 8 6 6 5 5 3 2 6 2 2 2 6 3 2 1 6 4 6 5 6 3 5
9 11 11 14 15 17 20 21 22 19 17 14 14 14 13 8 8 5 4 2 6 6 2 5 2 5 4 2 5 3 4 3 3 4 3 1 3 1 4 3 2 1 2 4 2 2 2
9 11 11 13 16 17 20 21 22 18 17 12 10 10 15 10 9 7 3 5 4 5 5 4 3 2 3 6 4 4 3 5 5 7 3 1 3 3 4 4 2 2 2 3 3 1 2
8 10 11 13 15 17 19 21 23 19 11 10 6 3 4 8 11 5 3 6 5 11 5 3 2 4 4 3 2 4 4 3 5 6 7 5 4 6 2 6 4 5 5 4 4 3 4
8 9 11 14 15 17 18 20 21 18 9 5 2 1 8 10 4 4 3 5 6 5 0 2 3 4 3 5 5 4 3 3 7 3 3 1 2 1 3 2 13 9 4 3 4 5 2
9 9 11 13 15 16 17 19 19 15 13 12 7 5 7 12 3 3 5 5 5 4 3 3 3 3 3 3 5 4 4 1 6 4 3 3 3 2 4 5 5 6 3 4 8 2 1
10 9 10 13 14 15 16 18 18 15 12 10 5 2 4 11 7 2 2 5 4 5 1 3 3 4 3 3 5 4 3 2 6 4 2 2 4 5 4 1 3 4 5 0 3 2 2
10 10 10 12 14 14 15 18 19 17 12 8 3 4 4 2 5 5 1 4 3 4 1 3 2 2 2 3 3 4 3 3 2 1 3 4 3 6 8 9 12 6 7 7 4 5 2
11 11 10 11 13 13 14 17 19 18 13 3 4 5 9 8 13 6 7 4 3 4 5 2 6 5 7 4 3 4 7 3 3 1 3 3 2 4 5 7 10 7 10 7 7 12 10
11 10 10 11 13 12 13 15 18 19 16 5 11 5 3 7 7 2 5 5 5 8 5 5 16 10 11 6 18 16 15 11 7 5 3 3 3 2 1 1 2 6 4 5 4 5 6
11 11 10 10 12 11 12 14 15 15 15 10 13 9 4 4 3 3 6 8 8 3 7 7 17 8 11 23 24 22 17 14 11 9 5 2 3 2 1 3 4 6 3 1 6 5 7
11 11 10 10 12 11 11 13 14 14 13 9 10 6 4 3 8 9 20 6 18 23 9 10 7 21 29 18 5 5 4 4 4 3 1 3 3 3 4 1 3 5 1 4 4 5 3
12 12 11 11 12 12 11 12 13 13 12 6 6 7 3 5 3 12 7 3 5 4 5 7 19 20 15 3 3 4 4 4 2 1 1 5 5 4 1 2 4 6 1 11 9 1 4
12 13 13 12 12 12 10 11 12 13 11 10 3 4 5 4 6 14 5 6 7 5 4 3 4 4 3 2 2 3 2 4 4 5 4 2 3 4 2 2 5 4 4 6 2 4 7
13 14 14 13 13 13 10 10 11 13 13 10 3 2 4 5 21 14 10 16 11 3 4 8 5 2 3 1 3 3 3 1 4 1 3 4 4 2 2 3 3 0 6 5 5 2 12
15 15 15 14 14 13 11 9 10 11 13 11 6 7 7 7 12 15 19 4 3 3 3 11 4 5 7 3 1 2 3 2 4 2 3 1 5 4 4 4 4 12 15 8 9 19 17
Wind_Direction
236 256 278 291 300 311 318 325 338 345 347 346 345 345 345 342 340 339 334 326 319 315 310 310 311 314 313 286 264 267 247 225 215 209 230 304 324 311 297 295 322 86 119 93 105 94 93
243 275 286 287 292 297 302 307 320 328 332 336 337 333 337 337 334 334 331 326 319 313 306 305 304 305 295 275 236 162 225 219 199 205 274 313 314 333 301 328 338 146 126 131 119 118 134
251 264 267 275 284 288 286 292 302 311 318 325 329 329 328 332 330 329 327 323 314 310 304 299 296 297 282 263 240 204 221 231 207 238 289 320 330 339 341 344 110 135 103 91 150 145 122
257 257 267 274 276 279 284 282 290 299 307 315 320 324 323 326 329 328 326 319 311 305 296 288 292 295 261 99 219 218 229 223 213 228 289 310 318 312 302 314 265 186 99 151 225 152 167
276 270 270 269 272 279 281 282 287 289 297 306 314 318 321 322 328 328 329 320 307 294 283 284 286 294 272 209 231 235 214 245 223 223 251 283 293 293 302 92 8 295 219 184 243 207 136
301 289 281 279 278 280 281 283 283 284 290 299 306 311 311 318 326 329 335 328 328 297 281 283 245 299 233 274 257 245 224 245 260 253 249 278 273 4 358 99 223 221 229 161 207 210 120
342 321 306 297 291 287 286 285 283 282 287 294 301 306 303 310 322 330 348 355 1 12 306 251 252 265 276 21 153 245 222 242 232 173 199 261 41 239 235 227 258 237 256 223 238 205 138
348 344 335 318 308 300 292 286 284 283 285 291 300 295 297 304 320 319 353 62 37 329 301 287 261 252 264 275 288 234 220 183 161 243 45 334 252 254 243 258 250 246 264 261 55 300 101
346 347 344 338 329 316 304 292 285 285 286 291 293 294 297 304 315 284 281 26 339 303 271 295 245 238 236 240 228 247 229 199 179 244 235 207 247 284 231 259 250 189 195 166 168 114 56
345 343 342 340 338 330 320 309 292 280 278 284 290 289 296 311 311 303 234 285 314 301 16 279 212 232 229 234 255 247 225 197 192 222 232 230 257 235 254 250 67 178 336 135 132 110 218
335 340 341 342 339 335 330 324 310 292 279 276 285 278 286 309 312 318 262 306 319 232 32 259 190 195 167 170 156 167 186 208 218 255 77 264 276 183 305 347 59 182 139 126 149 171 158
328 335 339 340 341 338 334 329 324 307 288 277 279 272 277 290 302 322 295 300 330 45 260 250 162 175 124 213 225 168 199 207 256 242 218 242 232 164 153 88 86 112 59 33 49 110 347
323 330 334 339 341 341 340 335 333 317 300 279 269 268 270 278 298 311 299 318 47 133 318 202 186 166 179 208 232 181 174 225 171 6 344 335 328 352 119 94 33 75 60 351 344 354 225
319 324 329 335 338 341 342 342 337 325 312 289 266 269 260 263 306 297 275 69 118 229 246 271 159 175 168 185 220 184 132 80 14 62 74 50 320 6 327 143 185 171 160 157 204 215 248
311 317 326 332 335 341 344 344 341 331 323 299 270 263 266 234 280 245 149 88 213 222 278 325 284 166 195 116 140 143 76 32 24 8 135 62 279 285 54 34 93 275 167 203 172 27 75
300 310 323 329 332 341 345 345 344 333 324 301 290 268 262 252 218 192 99 242 244 239 297 36 57 25 200 185 129 107 53 348 343 27 20 175 336 321 337 1 351 168 188 17 2 109 251
287 308 322 326 330 341 346 347 347 341 335 309 294 264 246 168 171 170 178 237 278 289 241 96 37 35 19 103 113 73 14 25 352 322 29 26 111 295 27 19 317 354 18 12 115 100 182
273 298 316 322 330 340 347 349 352 348 344 326 272 255 202 171 176 210 190 215 307 308 313 50 99 76 69 30 48 86 102 35 343 339 29 86 148 323 80 197 100 88 75 95 79 289 155
263 288 306 316 325 338 346 350 354 354 352 330 313 275 203 191 183 243 273 271 288 293 350 35 88 88 74 104 100 108 116 314 45 65 70 326 12 41 1 336 15 65 85 117 124 336 210
260 273 298 312 321 336 343 347 352 354 344 325 294 318 195 202 243 251 266 255 238 230 66 63 112 69 74 72 59 143 121 192 66 80 75 87 38 126 154 51 92 41 29 226 104 107 266
260 264 287 305 316 332 342 345 350 354 337 318 258 265 350 250 264 216 320 301 281 188 187 79 33 158 177 133 119 116 95 110 77 354 63 89 75 82 72 96 80 59 17 343 176 225 146
257 261 275 298 309 328 339 344 350 357 358 329 325 351 334 293 286 187 170 262 223 241 149 210 89 40 91 97 202 154 128 130 164 330 74 39 148 95 59 77 76 63 19 43 39 74 80
254 260 266 287 301 324 335 343 351 360 8 8 4 327 294 295 318 153 205 223 311 155 40 181 133 93 80 132 98 99 100 113 129 118 69 66 106 88 72 298 23 26 335 16 52 72 106
252 255 259 275 294 316 330 341 350 2 6 359 2 356 334 291 325 347 335 307 263 254 128 124 116 102 134 119 105 98 90 93 85 69 93 107 100 104 123 23 45 241 257 263 102 69 75
249 250 255 265 285 307 322 336 347 356 359 347 348 359 341 300 306 320 336 285 94 89 75 80 64 133 142 134 77 68 1 27 34 79 96 157 123 77 112 96 255 320 347 152 128 12 5
245 246 250 257 274 295 314 329 342 347 355 339 316 5 334 323 239 331 309 39 115 104 34 65 115 148 150 77 84 131 191 182 143 39 4 80 76 109 119 140 182 237 209 136 103 18 15
244 242 245 251 264 284 302 319 335 340 351 343 272 343 336 297 292 343 3 326 339 68 102 81 97 83 69 58 102 145 211 151 137 165 199 45 22 108 100 121 288 223 120 135 98 221 282
249 240 241 246 254 273 292 308 326 334 342 341 268 295 21 295 285 292 322 337 345 34 131 156 81 2 60 112 145 202 110 209 83 277 193 153 131 190 98 72 303 79 51 109 177 146 86
245 238 236 240 248 263 282 299 317 329 334 341 310 220 312 274 273 291 305 263 222 332 130 163 125 166 198 106 209 118 88 69 128 218 354 24 171 160 146 201 245 100 108 114 114 108 105
Height
1565 1566 1567 1565 1565 1564 1563 1562 1560 1557 1556 1554 1551 1548 1545 1542 1540 1537 1533 1529 1526 1523 1521 1519 1517 1516 1514 1512 1508 1508 1508 1509 1508 1508 1509 1509 1508 1507 1507 1504 1502 1503 1506 1507 1506 1507 1511
1564 1564 1564 1563 1563 1563 1561 1560 1558 1556 1555 1552 1550 1547 1544 1541 1538 1534 1530 1526 1523 1521 1518 1517 1515 1514 1513 1513 1506 1506 1507 1508 1508 1508 1508 1508 1508 1506 1504 1503 1503 1501 1505 1509 1508 1510 1513
1561 1562 1563 1562 1561 1560 1559 1557 1557 1555 1553 1551 1549 1546 1543 1540 1536 1532 1528 1523 1520 1517 1516 1514 1513 1512 1511 1506 1505 1505 1506 1507 1508 1508 1507 1508 1507 1507 1506 1504 1504 1504 1509 1509 1511 1510 1514
1559 1559 1560 1558 1557 1557 1554 1555 1554 1553 1551 1549 1547 1545 1542 1539 1535 1531 1524 1520 1517 1514 1513 1513 1511 1510 1506 1505 1504 1505 1505 1506 1507 1508 1507 1507 1505 1505 1505 1505 1504 1505 1509 1518 1509 1508 1512
1557 1556 1557 1556 1553 1553 1550 1551 1551 1550 1549 1547 1545 1543 1540 1537 1533 1528 1522 1516 1514 1512 1511 1511 1511 1509 1504 1503 1502 1503 1504 1504 1506 1507 1507 1506 1505 1505 1504 1508 1514 1508 1520 1516 1512 1506 1508
1555 1555 1555 1553 1551 1550 1548 1549 1547 1547 1546 1545 1542 1540 1537 1535 1531 1526 1521 1514 1511 1510 1509 1510 1509 1511 1503 1502 1500 1500 1502 1504 1506 1504 1507 1506 1505 1506 1507 1512 1526 1515 1515 1512 1515 1508 1507
1554 1553 1551 1550 1549 1547 1546 1546 1544 1544 1543 1542 1539 1538 1534 1533 1530 1526 1522 1514 1513 1512 1509 1507 1506 1503 1500 1501 1500 1500 1502 1503 1505 1504 1507 1505 1510 1513 1505 1504 1501 1503 1506 1509 1505 1499 1504
1553 1552 1550 1549 1546 1544 1543 1542 1542 1540 1540 1539 1537 1534 1532 1531 1528 1525 1523 1520 1521 1521 1509 1501 1500 1500 1499 1500 1501 1499 1501 1502 1502 1506 1504 1509 1511 1500 1500 1499 1501 1501 1505 1507 1503 1498 1503
1553 1551 1549 1547 1544 1542 1541 1539 1538 1537 1536 1535 1534 1531 1529 1527 1525 1524 1523 1521 1520 1517 1514 1496 1494 1494 1496 1498 1497 1498 1499 1500 1502 1505 1505 1511 1499 1493 1496 1496 1499 1501 1500 1504 1504 1502 1504
1552 1550 1548 1546 1543 1542 1540 1537 1534 1533 1532 1531 1531 1529 1527 1525 1525 1522 1521 1520 1519 1516 1519 1499 1492 1493 1495 1495 1495 1495 1495 1499 1500 1504 1502 1504 1490 1493 1494 1491 1491 1500 1494 1493 1501 1509 1523
1551 1549 1547 1545 1542 1540 1537 1534 1531 1529 1528 1528 1528 1526 1525 1524 1522 1520 1519 1519 1517 1516 1547 1493 1491 1491 1491 1494 1495 1495 1495 1496 1498 1499 1500 1502 1492 1491 1493 1495 1490 1499 1495 1497 1501 1510 1511
1550 1548 1546 1543 1541 1538 1535 1532 1528 1525 1524 1524 1523 1523 1521 1522 1520 1519 1518 1516 1516 1529 1539 1493 1487 1489 1491 1491 1493 1493 1494 1494 1494 1495 1494 1493 1487 1487 1491 1492 1492 1494 1498 1504 1507 1513 1533
1548 1547 1545 1543 1540 1537 1534 1530 1526 1523 1521 1519 1519 1520 1519 1519 1518 1516 1516 1516 1528 1540 1492 1491 1490 1487 1490 1492 1492 1492 1493 1496 1502 1506 1505 1496 1492 1489 1489 1495 1493 1497 1512 1535 1537 1544 1542
1547 1546 1544 1541 1539 1536 1533 1528 1524 1521 1518 1515 1515 1516 1515 1516 1516 1514 1516 1519 1535 1501 1493 1481 1482 1484 1492 1489 1490 1490 1494 1503 1499 1499 1508 1512 1514 1496 1490 1492 1499 1502 1509 1534 1537 1540 1534
1545 1544 1543 1540 1538 1534 1531 1526 1523 1518 1515 1512 1511 1512 1511 1514 1514 1513 1515 1531 1514 1499 1485 1485 1481 1487 1489 1485 1488 1490 1502 1506 1504 1502 1508 1513 1507 1493 1493 1493 1495 1500 1511 1503 1513 1519 1527
1543 1542 1541 1539 1536 1533 1529 1525 1521 1516 1512 1510 1509 1509 1509 1511 1511 1512 1516 1517 1502 1489 1484 1482 1489 1483 1489 1489 1490 1495 1505 1510 1508 1505 1503 1506 1518 1500 1496 1494 1494 1497 1499 1518 1523 1533 1538
1542 1541 1539 1537 1535 1532 1529 1525 1519 1515 1511 1510 1509 1508 1506 1506 1510 1512 1516 1510 1495 1486 1483 1483 1487 1488 1488 1488 1490 1503 1513 1513 1510 1507 1503 1506 1515 1511 1501 1513 1512 1509 1519 1519 1524 1542 1547
1540 1539 1538 1536 1534 1531 1528 1524 1519 1514 1512 1510 1508 1508 1504 1506 1510 1507 1506 1498 1492 1485 1482 1481 1483 1487 1490 1491 1498 1506 1512 1512 1510 1508 1510 1510 1514 1520 1516 1513 1509 1512 1519 1533 1543 1540 1535
1537 1537 1537 1535 1533 1531 1528 1524 1520 1516 1514 1511 1508 1505 1503 1504 1511 1507 1497 1495 1493 1487 1484 1483 1485 1486 1487 1493 1505 1506 1513 1512 1510 1509 1512 1513 1521 1534 1524 1520 1513 1518 1521 1525 1529 1538 1528
1535 1535 1535 1534 1532 1530 1527 1524 1520 1517 1514 1513 1510 1507 1502 1503 1502 1500 1497 1494 1493 1485 1484 1483 1484 1485 1488 1494 1495 1509 1511 1512 1510 1511 1512 1513 1521 1525 1538 1527 1525 1530 1527 1524 1526 1533 1533
1533 1533 1533 1532 1530 1530 1527 1523 1519 1515 1513 1512 1509 1504 1501 1500 1499 1498 1497 1495 1489 1486 1484 1483 1486 1487 1491 1500 1500 1507 1509 1512 1513 1512 1512 1515 1528 1525 1527 1527 1529 1532 1531 1527 1522 1521 1525
1530 1531 1531 1530 1529 1529 1526 1523 1519 1515 1512 1510 1509 1506 1502 1499 1496 1494 1496 1492 1486 1484 1484 1486 1493 1493 1492 1500 1500 1507 1507 1511 1514 1514 1513 1517 1529 1526 1536 1532 1532 1537 1532 1531 1528 1527 1529
1528 1528 1529 1529 1528 1527 1525 1523 1519 1515 1512 1509 1508 1506 1507 1498 1495 1492 1491 1486 1483 1481 1484 1484 1490 1494 1500 1502 1500 1502 1503 1508 1511 1512 1517 1520 1526 1533 1538 1534 1534 1545 1539 1534 1532 1529 1529
1525 1526 1526 1526 1526 1526 1525 1522 1520 1517 1515 1512 1511 1508 1507 1500 1497 1495 1489 1489 1483 1481 1484 1489 1488 1493 1503 1503 1505 1507 1509 1511 1512 1512 1515 1523 1527 1534 1547 1538 1564 1542 1534 1532 1534 1534 1533
1522 1523 1524 1524 1524 1524 1523 1522 1519 1517 1515 1512 1511 1511 1510 1506 1500 1492 1489 1486 1483 1483 1487 1489 1490 1493 1499 1503 1510 1518 1521 1518 1516 1515 1518 1520 1526 1540 1551 1563 1550 1537 1530 1533 1534 1541 1535
1519 1520 1522 1523 1523 1523 1522 1521 1520 1517 1515 1513 1512 1511 1510 1510 1500 1499 1493 1488 1486 1488 1493 1495 1497 1500 1502 1506 1510 1521 1531 1522 1523 1520 1520 1520 1522 1537 1549 1541 1567 1540 1530 1529 1530 1545 1537
1516 1518 1519 1520 1521 1521 1522 1520 1519 1516 1514 1512 1512 1511 1511 1509 1500 1500 1496 1496 1492 1490 1496 1499 1500 1503 1504 1511 1515 1521 1523 1512 1525 1528 1527 1529 1534 1543 1557 1551 1547 1530 1529 1530 1540 1548 1536
1513 1515 1516 1518 1519 1520 1520 1520 1518 1516 1513 1512 1511 1511 1511 1509 1500 1499 1499 1497 1495 1494 1496 1499 1504 1506 1509 1513 1516 1517 1519 1519 1522 1523 1523 1530 1539 1549 1548 1552 1556 1529 1529 1536 1537 1536 1537
1510 1512 1514 1516 1517 1518 1518 1518 1517 1515 1513 1512 1511 1510 1510 1511 1503 1499 1496 1496 1496 1497 1497 1497 1502 1501 1503 1510 1512 1511 1517 1520 1526 1536 1522 1535 1530 1539 1537 1544 1532 1530 1532 1533 1535 1536 1538